KA5FVT Weather Reports


Display with metric or nautical units.
time (UTC)temp
F
wind
direction
speed
MPH
gust
MPH
rain 1hr
in
rain 24hr
in
rain mn
in
humidity
%
barometer
mb
20260506101927 76 205 0.0 0.0 0.00 0.00 0.00 90 1008.0
20260506101427 76 205 0.0 1.0 0.00 0.00 0.00 90 1008.0
20260506100927 76 205 0.0 0.0 0.00 0.00 0.00 90 1008.0
20260506100426 76 205 0.0 0.0 0.00 0.00 0.00 90 1007.9
20260506095926 76 205 0.0 0.0 0.00 0.00 0.00 90 1007.9
20260506095426 76 205 0.0 0.0 0.00 0.00 0.00 90 1007.9
20260506094929 76 205 0.0 0.0 0.00 0.00 0.00 89 1007.8
20260506094429 76 205 0.0 0.0 0.00 0.00 0.00 89 1007.6
20260506093927 76 205 0.0 0.0 0.00 0.00 0.00 89 1007.5
20260506093427 77 205 0.0 1.0 0.00 0.00 0.00 89 1007.5
20260506092929 77 205 0.0 0.0 0.00 0.00 0.00 89 1007.4
20260506092427 77 205 0.0 1.0 0.00 0.00 0.00 89 1007.6
20260506091926 77 205 0.0 1.0 0.00 0.00 0.00 89 1007.6
20260506091427 77 205 0.0 1.0 0.00 0.00 0.00 89 1007.5
20260506090926 77 205 1.0 2.0 0.00 0.00 0.00 89 1007.7
20260506090429 77 206 0.0 1.0 0.00 0.00 0.00 89 1007.8
20260506085927 77 206 0.0 2.0 0.00 0.00 0.00 89 1007.7
20260506085430 77 206 0.0 0.0 0.00 0.00 0.00 89 1007.8
20260506084927 77 206 0.0 1.0 0.00 0.00 0.00 89 1007.9
20260506084426 77 206 0.0 1.0 0.00 0.00 0.00 89 1007.6
20260506083927 77 206 0.0 1.0 0.00 0.00 0.00 88 1007.8
20260506083427 77 206 0.0 2.0 0.00 0.00 0.00 88 1007.8
20260506082927 77 206 0.0 1.0 0.00 0.00 0.00 88 1007.9
20260506082427 77 206 0.0 2.0 0.00 0.00 0.00 88 1007.9
20260506081927 77 206 0.0 0.0 0.00 0.00 0.00 88 1008.0
20260506081430 77 206 0.0 1.0 0.00 0.00 0.00 88 1008.1
20260506080926 77 206 0.0 1.0 0.00 0.00 0.00 88 1008.1
20260506080427 77 206 0.0 0.0 0.00 0.00 0.00 88 1008.1
20260506073426 77 206 0.0 1.0 0.00 0.00 0.00 88 1008.6
20260506072926 77 206 0.0 1.0 0.00 0.00 0.00 88 1008.7
20260506072429 77 206 0.0 0.0 0.00 0.00 0.00 88 1008.7
20260506071927 77 206 0.0 1.0 0.00 0.00 0.00 88 1008.7
20260506071427 77 206 0.0 2.0 0.00 0.00 0.00 88 1008.8
20260506070926 77 206 0.0 1.0 0.00 0.00 0.00 88 1008.8
20260506070426 77 206 0.0 2.0 0.00 0.00 0.00 88 1008.8
20260506062427 77 206 0.0 1.0 0.00 0.00 0.00 88 1008.8
20260506061926 77 206 0.0 1.0 0.00 0.00 0.00 88 1008.9
20260506061426 77 206 0.0 0.0 0.00 0.00 0.00 88 1008.9
20260506060926 77 206 0.0 0.0 0.00 0.00 0.00 88 1008.9
20260506060427 77 206 0.0 0.0 0.00 0.00 0.00 87 1008.9
20260506050930 78 206 0.0 1.0 0.00 0.00 0.00 87 1009.1
20260506050427 78 207 0.0 1.0 0.00 0.00 0.00 86 1009.0
20260506044926 78 163 1.0 2.0 0.00 0.00 0.00 85 1008.7
20260506044426 78 165 1.0 2.0 0.00 0.00 0.00 85 1008.9
20260506043927 78 165 1.0 2.0 0.00 0.00 0.00 85 1009.0
20260506043427 78 164 0.0 1.0 0.00 0.00 0.00 85 1009.1
20260506042926 78 164 0.0 1.0 0.00 0.00 0.00 85 1009.1
20260506042427 79 164 0.0 1.0 0.00 0.00 0.00 84 1009.0
20260506041927 79 164 0.0 1.0 0.00 0.00 0.00 84 1008.8
20260506041426 79 164 0.0 1.0 0.00 0.00 0.00 84 1008.9
20260506040929 79 164 0.0 2.0 0.00 0.00 0.00 84 1009.0
20260506040426 79 163 0.0 0.0 0.00 0.00 0.00 84 1008.9
20260506035927 79 163 0.0 0.0 0.00 0.00 0.00 83 1008.8
20260506035426 79 163 0.0 2.0 0.00 0.00 0.00 83 1008.7
20260506034930 79 157 0.0 1.0 0.00 0.00 0.00 83 1008.6
20260506034427 79 157 0.0 4.0 0.00 0.00 0.00 83 1008.5
20260506033926 79 185 1.0 2.0 0.00 0.00 0.00 83 1008.6
20260506033426 79 185 0.0 1.0 0.00 0.00 0.00 83 1008.6
20260506032926 79 185 1.0 1.0 0.00 0.00 0.00 83 1008.5
20260506032427 79 185 0.0 1.0 0.00 0.00 0.00 83 1008.4
20260506031927 79 185 0.0 1.0 0.00 0.00 0.00 83 1008.3
20260506031426 79 185 0.0 1.0 0.00 0.00 0.00 83 1008.1
20260506030927 79 185 0.0 1.0 0.00 0.00 0.00 83 1008.0
20260506030427 79 185 0.0 1.0 0.00 0.00 0.00 82 1007.9
20260506025927 79 185 0.0 1.0 0.00 0.00 0.00 82 1007.9
20260506025426 79 185 0.0 2.0 0.00 0.00 0.00 82 1007.8
20260506024930 79 185 1.0 2.0 0.00 0.00 0.00 82 1007.8
20260506024426 79 186 0.0 2.0 0.00 0.00 0.00 82 1007.7
20260506023926 79 187 0.0 2.0 0.00 0.00 0.00 82 1007.6
20260506023430 79 184 0.0 2.0 0.00 0.00 0.00 81 1007.4
20260506022927 79 184 0.0 1.0 0.00 0.00 0.00 81 1007.5
20260506022427 79 184 0.0 3.0 0.00 0.00 0.00 81 1007.5
20260506021929 79 184 1.0 2.0 0.00 0.00 0.00 81 1007.5
20260506021430 80 219 2.0 2.0 0.00 0.00 0.00 81 1007.5
20260506020926 80 219 0.0 1.0 0.00 0.00 0.00 80 1007.3
20260506020427 80 219 1.0 2.0 0.00 0.00 0.00 80 1007.3
20260506015927 80 219 1.0 2.0 0.00 0.00 0.00 80 1007.2
20260506015428 80 219 1.0 2.0 0.00 0.00 0.00 80 1007.3
20260506014926 80 219 0.0 2.0 0.00 0.00 0.00 80 1007.2
20260506014429 80 219 0.0 2.0 0.00 0.00 0.00 80 1007.1
20260506013930 80 229 1.0 2.0 0.00 0.00 0.00 79 1007.1
20260506013426 80 234 0.0 2.0 0.00 0.00 0.00 79 1007.0
20260506012927 80 248 1.0 2.0 0.00 0.00 0.00 79 1006.9
20260506012427 80 223 0.0 1.0 0.00 0.00 0.00 79 1006.8
20260506011927 80 223 1.0 1.0 0.00 0.00 0.00 79 1006.7
20260506011427 80 223 0.0 2.0 0.00 0.00 0.00 79 1006.6
20260506010926 80 223 0.0 2.0 0.00 0.00 0.00 78 1006.5
20260506010426 81 223 2.0 2.0 0.00 0.00 0.00 78 1006.5
20260506005930 81 224 0.0 2.0 0.00 0.00 0.00 78 1006.6
20260506005426 81 224 1.0 1.0 0.00 0.00 0.00 78 1006.5
20260506004926 81 224 0.0 2.0 0.00 0.00 0.00 78 1006.4
20260506004427 81 224 0.0 1.0 0.00 0.00 0.00 78 1006.4
20260506003927 81 224 1.0 2.0 0.00 0.00 0.00 78 1006.5
20260506003426 81 225 0.0 1.0 0.00 0.00 0.00 78 1006.5
20260506002926 81 225 1.0 1.0 0.00 0.00 0.00 78 1006.4
20260506002426 81 225 0.0 0.0 0.00 0.00 0.00 77 1006.4
20260506001927 82 225 0.0 1.0 0.00 0.00 0.00 77 1006.3
20260506001426 82 225 0.0 1.0 0.00 0.00 0.00 76 1006.2
20260506000930 82 225 1.0 1.0 0.00 0.00 0.00 76 1006.2
20260506000427 82 225 0.0 1.0 0.00 0.00 0.00 76 1006.3
20260505235926 82 225 1.0 1.0 0.00 0.00 0.00 77 1006.2
20260505235426 82 225 0.0 1.0 0.00 0.00 0.00 77 1006.2
20260505234926 82 225 0.0 1.0 0.00 0.00 0.00 76 1006.2
20260505234427 82 225 1.0 1.0 0.00 0.00 0.00 76 1006.0
20260505233927 82 225 0.0 2.0 0.00 0.00 0.00 76 1006.0
20260505233427 82 225 0.0 2.0 0.00 0.00 0.00 75 1006.1
20260505232927 82 225 0.0 1.0 0.00 0.00 0.00 76 1006.2
20260505232426 82 225 0.0 2.0 0.00 0.00 0.00 75 1006.1
20260505231927 82 225 0.0 2.0 0.00 0.00 0.00 75 1006.2
20260505231426 82 226 0.0 2.0 0.00 0.00 0.00 75 1006.1
20260505230926 83 226 2.0 2.0 0.00 0.00 0.00 74 1006.2
20260505230427 83 227 1.0 2.0 0.00 0.00 0.00 75 1006.3
20260505225926 83 227 0.0 2.0 0.00 0.00 0.00 75 1006.3
20260505225427 83 227 0.0 2.0 0.00 0.00 0.00 75 1006.2
20260505224926 83 264 0.0 2.0 0.00 0.00 0.00 75 1006.2
20260505224426 83 269 0.0 2.0 0.00 0.00 0.00 74 1006.2
20260505223927 83 268 0.0 1.0 0.00 0.00 0.00 75 1006.1
20260505223427 83 268 1.0 3.0 0.00 0.00 0.00 75 1006.2
20260505222927 83 167 1.0 1.0 0.00 0.00 0.00 74 1006.3
20260505222427 83 167 0.0 2.0 0.00 0.00 0.00 75 1006.2
20260505221926 83 198 1.0 2.0 0.00 0.00 0.00 75 1006.3
20260505221427 83 196 0.0 2.0 0.00 0.00 0.00 75 1006.3
20260505220926 83 197 1.0 2.0 0.00 0.00 0.00 75 1006.2
20260505220426 83 194 1.0 1.0 0.00 0.00 0.00 75 1006.4
20260505215926 83 194 0.0 2.0 0.00 0.00 0.00 76 1006.6
20260505215427 83 194 0.0 3.0 0.00 0.00 0.00 75 1006.6
20260505214927 83 228 1.0 2.0 0.00 0.00 0.00 75 1006.6
20260505214429 83 228 1.0 2.0 0.00 0.00 0.00 75 1006.7
20260505213929 83 259 1.0 2.0 0.00 0.00 0.00 75 1006.8
20260505213430 84 263 0.0 2.0 0.00 0.00 0.00 74 1006.8
20260505212930 84 213 1.0 2.0 0.00 0.00 0.00 74 1006.9
20260505212426 84 281 1.0 2.0 0.00 0.00 0.00 75 1006.9
20260505211927 84 281 1.0 5.0 0.00 0.00 0.00 74 1006.9
20260505211426 84 9 2.0 2.0 0.00 0.00 0.00 74 1007.1
20260505210926 84 182 1.0 1.0 0.00 0.00 0.00 74 1007.1
20260505210426 84 182 1.0 2.0 0.00 0.00 0.00 74 1007.1
20260505205926 84 182 0.0 2.0 0.00 0.00 0.00 75 1007.1
20260505205427 84 182 0.0 2.0 0.00 0.00 0.00 74 1007.1
20260505204927 84 182 1.0 2.0 0.00 0.00 0.00 74 1007.1
20260505204429 84 182 1.0 1.0 0.00 0.00 0.00 75 1007.2
20260505203926 84 182 0.0 2.0 0.00 0.00 0.00 75 1007.3
20260505203426 84 283 0.0 4.0 0.00 0.00 0.00 75 1007.2
20260505202926 84 227 1.0 2.0 0.00 0.00 0.00 74 1007.4
20260505202427 83 217 1.0 2.0 0.00 0.00 0.00 74 1007.5
20260505201926 83 217 1.0 2.0 0.00 0.00 0.00 75 1007.6
20260505201427 83 218 0.0 2.0 0.00 0.00 0.00 75 1007.7
20260505200927 83 257 0.0 2.0 0.00 0.00 0.00 76 1007.8
20260505200426 83 112 1.0 4.0 0.00 0.00 0.00 75 1007.8
20260505195929 83 167 0.0 4.0 0.00 0.00 0.00 75 1007.9
20260505195426 83 167 1.0 2.0 0.00 0.00 0.00 75 1007.9
20260505194926 83 148 1.0 2.0 0.00 0.00 0.00 76 1008.0
20260505194427 83 293 0.0 2.0 0.00 0.00 0.00 77 1008.1
20260505193927 83 293 0.0 6.0 0.00 0.00 0.00 75 1008.0
20260505193427 83 186 1.0 2.0 0.00 0.00 0.00 76 1008.1
20260505192926 83 148 0.0 1.0 0.00 0.00 0.00 77 1008.3
20260505192429 83 148 0.0 2.0 0.00 0.00 0.00 77 1008.3
20260505191927 83 128 1.0 2.0 0.00 0.00 0.00 77 1008.2
20260505191430 82 172 0.0 2.0 0.00 0.00 0.00 77 1008.2
20260505190926 82 173 1.0 1.0 0.00 0.00 0.00 77 1008.3
20260505190426 82 170 0.0 2.0 0.00 0.00 0.00 75 1008.3
20260505185926 82 170 0.0 4.0 0.00 0.00 0.00 75 1008.3
20260505185426 82 268 0.0 3.0 0.00 0.00 0.00 77 1008.4
20260505184926 82 289 2.0 2.0 0.00 0.00 0.00 78 1008.5
20260505184427 82 185 1.0 2.0 0.00 0.00 0.00 77 1008.5
20260505183927 82 184 0.0 3.0 0.00 0.00 0.00 77 1008.5
20260505183427 82 175 1.0 4.0 0.00 0.00 0.00 77 1008.6
20260505182926 82 184 1.0 4.0 0.00 0.00 0.00 78 1008.6
20260505182426 81 185 0.0 2.0 0.00 0.00 0.00 79 1008.7
20260505181926 81 175 0.0 2.0 0.00 0.00 0.00 79 1008.8
20260505181426 81 176 1.0 4.0 0.00 0.00 0.00 79 1008.7
20260505180930 80 190 1.0 2.0 0.00 0.00 0.00 80 1008.7
20260505180426 80 185 1.0 2.0 0.00 0.00 0.00 80 1008.7
20260505175926 80 196 1.0 3.0 0.00 0.00 0.00 80 1008.9
20260505175427 80 215 0.0 2.0 0.00 0.00 0.00 79 1008.9
20260505174930 80 215 0.0 2.0 0.00 0.00 0.00 80 1008.8
20260505174430 80 215 1.0 3.0 0.00 0.00 0.00 80 1008.9
20260505173927 80 215 1.0 4.0 0.00 0.00 0.00 80 1009.0
20260505173427 80 192 0.0 1.0 0.00 0.00 0.00 81 1008.9
20260505172929 80 192 1.0 1.0 0.00 0.00 0.00 80 1009.0
20260505172427 80 192 0.0 1.0 0.00 0.00 0.00 81 1009.0
20260505171926 79 192 2.0 2.0 0.00 0.00 0.00 82 1009.0
20260505171426 79 355 0.0 4.0 0.00 0.00 0.00 83 1009.0
20260505170929 79 198 0.0 2.0 0.00 0.00 0.00 83 1009.1
20260505170427 78 182 0.0 2.0 0.00 0.00 0.00 84 1009.2
20260505165927 78 179 1.0 3.0 0.00 0.00 0.00 84 1009.3
20260505165427 78 61 2.0 3.0 0.00 0.00 0.00 84 1009.3
20260505164926 78 303 0.0 2.0 0.00 0.00 0.00 84 1009.3
20260505164426 78 303 1.0 2.0 0.00 0.00 0.00 84 1009.3
20260505163929 78 309 0.0 0.0 0.00 0.00 0.00 84 1009.2
20260505163427 78 309 0.0 1.0 0.00 0.00 0.00 84 1009.3
20260505162926 78 309 0.0 2.0 0.00 0.00 0.00 83 1009.2
20260505162428 78 251 0.0 2.0 0.00 0.00 0.00 84 1009.1
20260505161930 78 251 0.0 2.0 0.00 0.00 0.00 84 1009.2
20260505161427 78 251 0.0 2.0 0.00 0.00 0.00 84 1009.2
20260505160926 78 264 1.0 2.0 0.00 0.00 0.00 84 1009.1
20260505160427 78 237 1.0 2.0 0.00 0.00 0.00 84 1009.2
20260505152930 77 304 0.0 1.0 0.00 0.00 0.00 85 1009.0
20260505152426 77 304 1.0 2.0 0.00 0.00 0.00 85 1009.0
20260505151927 77 222 0.0 1.0 0.00 0.00 0.00 84 1008.9
20260505151429 77 222 0.0 1.0 0.00 0.00 0.00 84 1008.9
20260505150927 77 222 0.0 1.0 0.00 0.00 0.00 85 1008.9
20260505150426 77 222 0.0 1.0 0.00 0.00 0.00 85 1008.9
20260505140426 75 119 1.0 2.0 0.00 0.00 0.00 87 1008.4
20260505124926 73 88 1.0 1.0 0.00 0.00 0.00 90 1008.1
20260505124426 73 88 0.0 0.0 0.00 0.00 0.00 90 1008.1
20260505123927 73 88 0.0 0.0 0.00 0.00 0.00 90 1008.2
20260505123427 73 88 0.0 0.0 0.00 0.00 0.00 90 1008.4
20260505122926 72 88 0.0 0.0 0.00 0.00 0.00 90 1008.0
20260505122427 72 88 0.0 0.0 0.00 0.00 0.00 90 1008.1
20260505121926 72 88 0.0 0.0 0.00 0.00 0.00 90 1008.1
20260505121427 72 88 0.0 0.0 0.00 0.00 0.00 90 1008.1
20260505120926 72 88 0.0 0.0 0.00 0.00 0.00 90 1008.0
20260505120426 72 88 0.0 0.0 0.00 0.00 0.00 90 1007.9
20260505115930 72 88 0.0 0.0 0.00 0.00 0.00 90 1007.9
20260505115426 72 88 0.0 0.0 0.00 0.00 0.00 90 1007.8
20260505114929 72 88 0.0 0.0 0.00 0.00 0.00 90 1007.8
20260505114426 72 88 0.0 0.0 0.00 0.00 0.00 90 1007.9
20260505113926 72 88 0.0 0.0 0.00 0.00 0.00 90 1008.2
20260505113429 72 88 0.0 0.0 0.00 0.00 0.00 90 1008.3
20260505112926 72 88 0.0 0.0 0.00 0.00 0.00 90 1008.1
20260505112427 72 88 0.0 0.0 0.00 0.00 0.00 90 1007.9
20260505111926 72 88 0.0 0.0 0.00 0.00 0.00 90 1007.9
20260505111429 72 88 0.0 1.0 0.00 0.00 0.00 90 1007.9
20260505110927 72 88 0.0 1.0 0.00 0.00 0.00 90 1007.9
20260505110429 72 88 0.0 0.0 0.00 0.00 0.00 90 1007.8